This demonstration page uses our WeatherBlox Daily Observations layout. Learn more.

41.55636, -103.73856

Hourly Observations for August 24, 2019

Temp ( °F °C ) Dew Point ( °F °C ) Humidity (%) Winds ( mph kmh ) Pressure ( in mb ) Visibility ( mi km ) Precip ( " mm )
12:58 am 00:58 Mostly Cloudy 56 13.2 53 11.9 92 92 S 7 11 29.94 1014 10 16.09344 0 0
1:58 am 01:58 Mostly Cloudy 55 12.8 53 11.9 94 94 S 12 19 29.94 1014 10 16.09344 0 0
2:58 am 02:58 Mostly Cloudy 55 12.6 53 11.8 95 95 S 15 24 29.94 1014 10 16.09344 0 0
3:58 am 03:58 Mostly Cloudy 55 12.6 54 12 96 96 S 10 17 29.91 1013 10 16.09344 0 0
4:58 am 04:58 Mostly Clear 55 12.7 53 11.9 95 95 S 10 17 29.88 1012 10 16.09344 0 0
5:58 am 05:58 Clear 55 12.7 54 12.1 96 96 SSW 13 20 29.88 1012 10 16.09344 0 0
6:58 am 06:58 Sunny 56 13.2 55 12.6 96 96 S 13 20 29.85 1011 10 16.09344 0 0
7:58 am 07:58 Mostly Cloudy 58 14.3 56 13.6 96 96 SSW 5 7 29.94 1014 10 16.09344 0 0
8:58 am 08:58 Cloudy 60 15.3 58 14.2 93 93 S 13 20 29.94 1014 10 16.09344 0 0
9:58 am 09:58 Cloudy 61 16.1 58 14.6 91 91 S 14 22 29.91 1013 10 16.09344 0 0
10:58 am 10:58 Mostly Cloudy 65 18.4 59 15.1 81 81 S 15 24 29.91 1013 10 16.09344 0 0
11:58 am 11:58 Mostly Sunny 67 19.4 58 14.7 74 74 SSW 9 15 29.88 1012 10 16.09344 0 0
12:58 pm 12:58 Partly Cloudy 70 20.9 58 14.7 68 68 SW 8 13 29.88 1012 10 16.09344 0 0
1:58 pm 13:58 Sunny 72 22.4 59 14.9 63 63 SSW 3 6 29.88 1012 10 16.09344 0 0
2:58 pm 14:58 Sunny 75 23.7 58 14.5 56 56 Calm 29.85 1011 10 16.09344 0 0
3:58 pm 15:58 Sunny 76 24.7 57 13.8 51 51 E 3 6 29.83 1010 10 16.09344 0 0
4:58 pm 16:58 Sunny 77 24.9 56 13.5 49 49 Calm 29.83 1010 10 16.09344 0 0
5:58 pm 17:58 Sunny 75 24.1 60 15.4 58 58 SE 5 7 29.83 1010 10 16.09344 0 0
6:58 pm 18:58 Sunny 71 21.8 60 15.3 67 67 SE 6 9 29.85 1011 10 16.09344 0 0
7:58 pm 19:58 Mostly Cloudy 66 19 60 15.8 82 82 SSE 5 7 29.85 1011 10 16.09344 0 0
8:58 pm 20:58 Mostly Clear 64 17.9 60 15.5 86 86 S 6 9 29.85 1011 10 16.09344 0 0
9:58 pm 21:58 Mostly Clear 62 16.8 58 14.3 85 85 SSW 7 11 29.85 1011 10 16.09344 0 0
10:58 pm 22:58 Mostly Clear 61 16.2 56 13.3 83 83 SSW 7 11 29.85 1011 10 16.09344 0 0
11:58 pm 23:58 Clear 60 15.5 55 12.9 85 85 SW 7 11 29.83 1010 10 16.09344 0 0

Powered by AerisWeather